www.pogodaiklimat.ru

Погода и климат >> Архив погоды >> Индонезия >> Танджунгпинанг


ПОГОДА в Танджунгпинанге

  • Прогноз погоды в Танджунгпинанге
  • Монитор погоды в Танджунгпинанге

АРХИВ ПОГОДЫ в Танджунгпинанге

Время (UTC), дата Ветер
(напр.,м/с)
 
Видим.   Явления Облачность Т
(С)
Тd
(С)
f
(%)
Тe
(С)
Тes
(С)
Комфортность P
(гПа)
Po
(гПа)
Тmin
(С)
Tmax
(С)
R
(мм)
R24
(мм)
S
(см)
00 18.06 С 2 7000 м слаб. ливневой дождь, в посл. час гроза 10/5 400 м
[Sc As op]
+25.0 +24.1 95 +34 +35 очень
душно
1011.5 1009.2 +25.0 1
03 18.06 штиль 0 7000 м слаб. дождь 10/6 400 м
[Sc As op]
+24.6 +24.3 98 +34 +36 очень
душно
1012.5 1010.1 4
06 18.06 ЮВ 2 8000 м слаб. дождь 10/5
[Cb cap As op]
+25.3 +25.0 98 +36 +38 очень
душно
1011.2 1008.8 4
09 18.06 Ю 2 8000 м слаб. дождь 10/5 400 м
[Sc As op]
+26.4 +25.6 95 +39 +39 очень
душно
1009.8 1007.4 0.3
12 18.06 ЮВ 2 8000 м {дождь} 8/3 400 м
[Sc Ac As Ci fib]
+25.9 +25.0 95 +37 +37 очень
душно
1009.5 1007.1 +26.9 0.0
15 18.06 штиль 0 8000 м 10/3 400 м
[Sc Ac As Ci fib]
+25.5 +24.9 96 +36 +36 очень
душно
1011.2 1008.9
18 18.06 штиль 0 8000 м 10/3 400 м
[Sc Ac As]
+25.4 +25.0 98 +36 +36 очень
душно
1010.8 1008.5
21 18.06 штиль 0 8000 м в посл. час дождь 10/4 400 м
[Cu Sc Ac As Cs]
+25.3 +24.9 98 +36 +36 очень
душно
1010.2 1007.8 0.0
00 19.06 штиль 0 8000 м {дождь} 9/3 500 м
[Cu med, cong Ac As Ci fib]
+25.3 +25.3 100 +36 +37 очень
душно
1011.2 1008.9 +24.6 8
03 19.06 ЮВ 3 10 км 9/4 400 м
[Cu Sc Ac As Ci fib]
+28.9 +27.1 90 +46 +50 опасность
перегрева
1011.9 1009.5
06 19.06 Ю 4 9000 м в посл. час дождь 8/3 500 м
[Cu med, cong Ac As Ci fib]
+28.0 +25.5 86 +41 +46 опасность
перегрева
1010.7 1008.3 21
09 19.06 Ю 3 10 км 8/3 500 м
[Cu med, cong Ac trans Ci fib]
+29.2 +25.3 80 +43 +45 опасность
перегрева
1008.9 1006.6
12 19.06 штиль 0 10 км 9/3 500 м
[Cu med, cong As op Ci fib]
+27.2 +25.5 90 +40 +40 очень
душно
1009.4 1007.0 +29.4
15 19.06 штиль 0 10 км 8/3 500 м
[Cu hum Ac trans Ci fib]
+27.0 +25.6 92 +40 +40 очень
душно
1010.1 1007.7
18 19.06 штиль 0 10 км 8/3 500 м
[Cu hum Ac trans Ci fib]
+26.2 +25.9 98 +39 +39 очень
душно
1010.5 1008.1
21 19.06 штиль 0 10 км 8/3 500 м
[Cu med, cong Ac trans Ci fib]
+25.8 +25.8 100 +38 +38 очень
душно
1009.9 1007.6
00 20.06 штиль 0 10 км 8/3 500 м
[Cu hum Ac trans Ci fib]
+26.8 +25.7 94 +40 +40 очень
душно
1010.7 1008.3 +25.3 21
03 20.06 Ю 4 10 км слаб. дождь 9/4 500 м
[Cu med, cong As trans Ci fib]
+29.8 +25.9 80 +45 +48 опасность
перегрева
1011.2 1008.8 0.0
06 20.06 Ю 4 10 км {дождь} 9/5 500 м
[Cu med, cong Ac trans Ci fib]
+31.0 +25.7 73 +46 +49 опасность
перегрева
1009.7 1007.3 0.0
09 20.06 ЮВ 3 10 км 8/5 500 м
[Cu med, cong Ac trans Ci fib]
+30.6 +25.0 72 +44 +45 опасность
перегрева
1008.2 1005.8
12 20.06 ЮВ 2 9000 м зарница 8/5 500 м
[Cb cap Ac trans Ci fib]
+28.0 +25.5 86 +41 +41 опасность
перегрева
1009.5 1007.1 +31.4
15 20.06 штиль 0 10 км гроза без осадков 8/5 500 м
[Cb cap Ac As Ci ing]
+26.8 +25.1 90 +39 +39 очень
душно
1011.5 1009.1
18 20.06 штиль 0 10 км {гроза} 9/4 500 м
[Cu hum Ac As Ci fib]
+26.0 +25.1 95 +37 +37 очень
душно
1010.2 1007.9
21 20.06 штиль 0 10 км 8/3 500 м
[Cu hum Ac As Ci fib]
+25.6 +24.7 95 +36 +36 очень
душно
1008.8 1006.4
00 21.06 Ю 3 10 км 9/6 400 м
[Sc Ac trans Ci fib]
+26.6 +24.6 89 +38 +38 очень
душно
1010.6 1008.2 +25.4 0.0
03 21.06 В 2 10 км {гроза} 9/5 500 м
[Cu med, cong Ac trans Ci fib]
+28.8 +25.1 80 +42 +46 опасность
перегрева
1010.5 1008.2
06 21.06 В 3 8000 м гроза, ливневой дождь 9/6 500 м
[Cb cap As trans Ci fib]
+27.2 +26.4 95 +41 +45 опасность
перегрева
1009.8 1007.4 0.3
09 21.06 Ю 6 10 км {гроза, дождь} 9/5 500 м
[Cu med, cong As trans Cs]
+28.8 +24.8 79 +41 +42 опасность
перегрева
1008.1 1005.8 10
12 21.06 Ю 2 10 км {гроза, дождь} 6/3 500 м
[Cu hum Ac trans Ci fib]
+27.4 +24.6 85 +39 +39 очень
душно
1008.8 1006.4 +30.6 10
15 21.06 ЮВ 2 10 км 6/3 500 м
[Cu hum Ac trans Ci fib]
+26.6 +24.6 89 +38 +38 очень
душно
1010.2 1007.8
18 21.06 штиль 0 9000 м 5/3 500 м
[Cu hum Ac trans Ci fib]
+25.8 +24.9 95 +37 +37 очень
душно
1009.7 1007.4
21 21.06 штиль 0 9000 м 5/3 500 м
[Cu hum Ac trans Ci fib]
+25.4 +25.4 100 +37 +37 очень
душно
1008.6 1006.2
00 22.06 штиль 0 8000 м осадки на расстоянии 10/6 400 м
[Sc As op]
+26.0 +25.1 95 +37 +37 очень
душно
1009.5 1007.2 +25.4 10
03 22.06 ЮЗ 7 8000 м осадки на расстоянии 10/8 400 м
[Cb cap As op]
+28.8 +25.4 82 +42 +42 опасность
перегрева
1009.8 1007.5
06 22.06 ЮЗ 5 2000 м гроза, ливневой дождь 10/8
[Cb cap As op]
+24.8 +23.5 92 +33 +34 очень
душно
1009.8 1007.4 11
09 22.06 СВ 1 9000 м {гроза} 10/6 400 м
[Cu Sc Ac cast Cs]
+26.0 +24.6 92 +37 +38 очень
душно
1008.1 1005.7 2
12 22.06 В 2 8000 м гроза, ливневой дождь 10/8
[Cb cap As op]
+23.6 +22.4 93 +31 +31 очень
душно
1009.1 1006.7 +28.8 18
15 22.06 Ю 2 8000 м слаб. дождь {гроза} 10/6 400 м
[Sc As op Ci fib]
+24.4 +22.0 86 +31 +31 очень
душно
1010.8 1008.4 4
18 22.06 С 1 10 км {дождь} 8/4 400 м
[Sc Ac trans Ci fib]
+23.8 +21.9 89 +31 +31 очень
душно
1009.1 1006.7 0.0
21 22.06 штиль 0 10 км 9/8 400 м
[Sc Ac trans Ci fib]
+23.8 +23.5 98 +32 +32 очень
душно
1008.9 1006.5
00 23.06 штиль 0 8000 м 5/4 500 м
[Cu med, cong Ac trans Ci fib]
+25.2 +24.6 96 +35 +36 очень
душно
1010.4 1008.0 +23.0 34
03 23.06 Ю 5 10 км 9/4 500 м
[Cu med, cong Ac trans Ci fib]
+29.1 +24.4 76 +41 +44 опасность
перегрева
1010.8 1008.5
06 23.06 Ю 5 10 км 8/3 500 м
[Cu hum Ac trans Ci fib]
+30.8 +25.3 73 +45 +49 опасность
перегрева
1008.8 1006.4
09 23.06 Ю 4 10 км 8/3 500 м
[Cu hum Ac trans Ci fib]
+30.8 +24.3 68 +43 +44 опасность
перегрева
1007.9 1005.5
12 23.06 штиль 0 10 км 8/3 500 м
[Cu hum Ac trans Ci fib]
+28.4 +25.9 86 +42 +42 опасность
перегрева
1008.8 1006.5 +31.0
15 23.06 штиль 0 10 км 8/3 500 м
[Cu hum Ac trans Ci fib]
+27.6 +25.6 89 +41 +41 опасность
перегрева
1010.5 1008.1
18 23.06 штиль 0 10 км 8/3 500 м
[Cu hum Ac trans Ci fib]
+27.5 +25.7 90 +41 +41 опасность
перегрева
1010.2 1007.8
21 23.06 штиль 0 10 км 8/3 500 м
[Cu hum Ac trans Ci fib]
+27.0 +25.3 90 +39 +39 очень
душно
1009.5 1007.1
00 24.06 штиль 0 10 км 5/4 500 м
[Cu med, cong Ac trans Ci fib]
+27.0 +25.6 92 +40 +41 очень
душно
1011.2 1008.8 +25.2
03 24.06 ЮВ 6 10 км 6/5 500 м
[Cu med, cong Ac trans Ci fib]
+30.6 +25.6 75 +45 +48 опасность
перегрева
1011.9 1009.5
06 24.06 ЮВ 4 10 км 8/5 500 м
[Cu med, cong Ac trans Ci fib]
+31.5 +25.5 71 +46 +50 опасность
перегрева
1010.5 1008.2
09 24.06 ЮВ 3 10 км 8/5 400 м
[Cu Sc Ac trans Ci fib]
+30.1 +25.9 78 +45 +46 опасность
перегрева
1009.8 1007.4
12 24.06 ЮВ 2 8000 м в посл. час дождь {гроза} 8/3 400 м
[Sc As op Ci fib]
+25.2 +23.5 90 +34 +34 очень
душно
1010.5 1008.2 +31.5 4
15 24.06 ЮВ 3 8000 м 8/3 400 м
[Sc As trans Ci fib]
+27.0 +24.6 87 +38 +38 очень
душно
1011.5 1009.1
18 24.06 ЮВ 2 8000 м 8/3 400 м
[Sc As trans Ci fib]
+26.7 +24.9 90 +38 +38 очень
душно
1011.2 1008.8
21 24.06 ЮВ 2 8000 м 9/4 500 м
[Cu med, cong Ac As Ci fib]
+26.9 +25.2 90 +39 +39 очень
душно
1010.5 1008.1

 

Местоположение метеостанции Танджунгпинанг (Индонезия): широта 0.92 долгота 104.53 высота над уровнем моря 18 м.

В архиве по умолчанию представлена погода в Танджунгпинанге за последнюю неделю. Архивные данные за месяц целиком и за предыдущие месяцы, начиная с января 2011 года, Вы можете получить, выбрав интересующий диапазон дат из раскрывающегося списка и нажав кнопку "Ввод!".


*Определитесь, кто Вы:
робот инопланетянин человек

Внимание! Время в таблицах - всемирное. Для получения местного времени необходимо прибавить поправку, которая равна 7 ч.

Смотрите также архив погоды в соседних городах и на ближайших метеорологических станциях:

Погода в Аэропорту Ханга Надима (Индонезия) (52 км)
Погода в Сингапуре (Сингапур) (79 км)
Погода в Аэропорту Сеная (Малайзия) (124 км)
Погода в Аэропорту Дабо (Индонезия) (156 км)
Погода в Аэропорту Япура (Индонезия) (283 км)
Погода в Малакке (Малайзия) (295 км)
Погода в Джамби (Индонезия) (300 км)
Погода в Таремпе (Индонезия) (318 км)
Погода в Пеканбару (Индонезия) (346 км)
Погода в Куантане (Малайзия) (350 км)

Пояснения к столбцам:

Ветер - указаны скорость ветра в м/с - средняя за 10 мин, порывы в срок и между сроками (в фигурных скобках) и направление, откуда дует ветер: С - северный, СВ - северо-восточный, В - восточный, ЮВ - юго-восточный, Ю - южный, ЮЗ - юго-западный, З - западный, СЗ - северо-западный.
Видимость - горизонтальная дальность видимости в метрах или километрах. При видимости от 1 до 10 км при отсутствии осадков обычно наблюдается дымка, при ухудшении видимости до 1 км и менее - туман. В сухую погоду видимость может ухудшаться дымом, пылью или мглою.
Явления - указаны атмосферные явления, наблюдавшиеся в срок или в последний час перед сроком; фигурными скобками обозначены явления, наблюдавшиеся между сроками (за 1-3 часа до срока); квадратными скобками обозначены град или гололедные отложения с указанием их диаметра в мм.
Облачность - указаны через наклонную черту общая и нижняя облачность в баллах и высота нижней границы облаков в метрах; квадратными скобками обозначены формы облаков: Ci - перистые, Cs - перисто-слоистые, Cc - перисто-кучевые, Ac - высококучевые, As - высокослоистые, Sc - слоисто-кучевые, Ns - слоисто-дождевые, Cu - кучевые, Cb - кучево-дождевые. Подробнее классификацию облаков см. в Атласе облаков (PDF).
T - Температура воздуха - температура, измеренная на высоте 2 м над землей.
Td - Температура точки росы - температура, при понижении до которой содержащийся в воздухе водяной пар достигнет насыщения.
f - Относительная влажность воздуха - влажноcть воздуха, измеренная на высоте 2 м над землей.
Te - Эффективная температура - температура, которую ощущает одетый по сезону человек в тени. Характеристика душности погоды. При расчете учитывается влияние влажности воздуха и скорости ветра на теплоощущения человека.
Tes - Эффективная температура на солнце - температура, которую ощущает человек, с поправкой на солнечный нагрев. Характеристика знойности погоды. Зависит от высоты солнца над горизонтом, облачности и скорости ветра. Ночью, в пасмурную погоду, а также при ветре 12 м/с и более поправка равна нулю.
P - Атмосферное давление - приведенное к уровню моря атмосферное давление.
Po - Атмосферное давление - измеренное на уровне метеостанции атмосферное давление.
Tmin - Минимальная температура - минимум температуры воздуха на высоте 2 м над землей.
Tmax - Максимальная температура - максимум температуры воздуха на высоте 2 м над землей.
R - Количество осадков - Количество выпавших осадков за период времени, мм. При наведении курсора мыши на число - период времени, за который выпало указанное количество осадков.
R24 - Количество осадков - Количество выпавших осадков за 24 часа, мм.
S - Снежный покров - Высота снежного покрова, см. При наведении курсора мыши на число - состояние снежного покрова и степень покрытия местности в баллах.